| time (UTC) | temp F | wind direction | speed MPH | gust MPH | rain 1hr in | rain 24hr in | rain mn in | humidity % | barometer mb |
| 20260831110041 | 64 | 314 | 0.0 | 0.0 | 0.00 | 0.00 | 0.00 | 67 | 1007.1 |
| 20260831105533 | 64 | 313 | 0.0 | 3.0 | 0.00 | 0.00 | 0.00 | 67 | 1007.2 |
| 20260831105034 | 64 | 313 | 1.0 | 4.0 | 0.00 | 0.00 | 0.00 | 66 | 1007.2 |
| 20260831104532 | 64 | 269 | 2.0 | 4.0 | 0.00 | 0.00 | 0.00 | 66 | 1007.2 |
| 20260831104030 | 65 | 239 | 1.0 | 3.0 | 0.00 | 0.00 | 0.00 | 65 | 1007.2 |
| 20260831103529 | 65 | 271 | 1.0 | 4.0 | 0.00 | 0.00 | 0.00 | 64 | 1007.3 |
| 20260831103027 | 65 | 257 | 1.0 | 4.0 | 0.00 | 0.00 | 0.00 | 64 | 1007.3 |
| 20260831102528 | 65 | 276 | 2.0 | 4.0 | 0.00 | 0.00 | 0.00 | 64 | 1007.3 |
| 20260831102026 | 65 | 278 | 2.0 | 4.0 | 0.00 | 0.00 | 0.00 | 64 | 1007.3 |
| 20260831101526 | 65 | 277 | 2.0 | 3.0 | 0.00 | 0.00 | 0.00 | 63 | 1007.3 |
| 20260831101027 | 65 | 280 | 1.0 | 3.0 | 0.00 | 0.00 | 0.00 | 63 | 1007.3 |
| 20260831100525 | 66 | 256 | 1.0 | 4.0 | 0.00 | 0.00 | 0.00 | 63 | 1007.2 |
| 20260831100025 | 66 | 308 | 1.0 | 3.0 | 0.00 | 0.00 | 0.00 | 63 | 1007.1 |
| 20260831095524 | 66 | 285 | 2.0 | 4.0 | 0.00 | 0.00 | 0.00 | 63 | 1007.1 |
| 20260831095025 | 66 | 248 | 2.0 | 4.0 | 0.00 | 0.00 | 0.00 | 63 | 1007.0 |
| 20260831094529 | 66 | 285 | 2.0 | 3.0 | 0.00 | 0.00 | 0.00 | 63 | 1007.0 |
| 20260831094024 | 66 | 280 | 1.0 | 4.0 | 0.00 | 0.00 | 0.00 | 63 | 1007.0 |
| 20260831093527 | 66 | 280 | 1.0 | 4.0 | 0.00 | 0.00 | 0.00 | 63 | 1007.0 |
| 20260831093027 | 66 | 269 | 1.0 | 3.0 | 0.00 | 0.00 | 0.00 | 63 | 1007.0 |
| 20260831092523 | 66 | 308 | 1.0 | 4.0 | 0.00 | 0.00 | 0.00 | 63 | 1007.0 |
| 20260831092024 | 66 | 298 | 2.0 | 4.0 | 0.00 | 0.00 | 0.00 | 63 | 1007.0 |
| 20260831091524 | 66 | 336 | 2.0 | 4.0 | 0.00 | 0.00 | 0.00 | 63 | 1007.0 |
| 20260831091024 | 66 | 268 | 2.0 | 4.0 | 0.00 | 0.00 | 0.00 | 64 | 1007.0 |
| 20260831090523 | 66 | 317 | 2.0 | 4.0 | 0.00 | 0.00 | 0.00 | 64 | 1006.9 |
| 20260831090023 | 66 | 293 | 2.0 | 3.0 | 0.00 | 0.00 | 0.00 | 64 | 1006.9 |
| 20260831085524 | 65 | 306 | 1.0 | 3.0 | 0.00 | 0.00 | 0.00 | 64 | 1006.9 |
| 20260831085027 | 65 | 264 | 2.0 | 3.0 | 0.00 | 0.00 | 0.00 | 64 | 1007.0 |
| 20260831084534 | 65 | 299 | 1.0 | 4.0 | 0.00 | 0.00 | 0.00 | 64 | 1007.0 |
| 20260831084020 | 66 | 308 | 1.0 | 4.0 | 0.00 | 0.00 | 0.00 | 63 | 1007.0 |
| 20260831083519 | 66 | 262 | 2.0 | 4.0 | 0.00 | 0.00 | 0.00 | 63 | 1007.0 |
| 20260831083018 | 66 | 262 | 2.0 | 4.0 | 0.00 | 0.00 | 0.00 | 62 | 1007.1 |
| 20260831082519 | 66 | 304 | 2.0 | 4.0 | 0.00 | 0.00 | 0.00 | 61 | 1007.2 |
| 20260831082016 | 67 | 294 | 2.0 | 6.0 | 0.00 | 0.00 | 0.00 | 61 | 1007.1 |
| 20260831081522 | 67 | 266 | 3.0 | 6.0 | 0.00 | 0.00 | 0.00 | 60 | 1007.2 |
| 20260831081015 | 67 | 293 | 2.0 | 4.0 | 0.00 | 0.00 | 0.00 | 60 | 1007.2 |
| 20260831080515 | 68 | 256 | 2.0 | 4.0 | 0.00 | 0.00 | 0.00 | 60 | 1007.2 |
| 20260831080013 | 68 | 280 | 2.0 | 6.0 | 0.00 | 0.00 | 0.00 | 59 | 1007.2 |
| 20260831075512 | 68 | 258 | 2.0 | 6.0 | 0.00 | 0.00 | 0.00 | 59 | 1007.3 |
| 20260831075017 | 68 | 289 | 2.0 | 5.0 | 0.00 | 0.00 | 0.00 | 59 | 1007.3 |
| 20260831074530 | 68 | 312 | 2.0 | 4.0 | 0.00 | 0.00 | 0.00 | 59 | 1007.3 |
| 20260831074012 | 68 | 314 | 1.0 | 6.0 | 0.00 | 0.00 | 0.00 | 58 | 1007.3 |
| 20260831073511 | 68 | 322 | 2.0 | 6.0 | 0.00 | 0.00 | 0.00 | 58 | 1007.3 |
| 20260831073024 | 68 | 295 | 2.0 | 4.0 | 0.00 | 0.00 | 0.00 | 58 | 1007.3 |
| 20260831072510 | 68 | 272 | 2.0 | 4.0 | 0.00 | 0.00 | 0.00 | 57 | 1007.3 |
| 20260831072011 | 69 | 254 | 2.0 | 4.0 | 0.00 | 0.00 | 0.00 | 57 | 1007.3 |
| 20260831071508 | 69 | 274 | 2.0 | 4.0 | 0.00 | 0.00 | 0.00 | 56 | 1007.3 |
| 20260831071007 | 69 | 262 | 2.0 | 5.0 | 0.00 | 0.00 | 0.00 | 57 | 1007.3 |
| 20260831070506 | 69 | 263 | 2.0 | 5.0 | 0.00 | 0.00 | 0.00 | 56 | 1007.4 |
| 20260831070006 | 69 | 281 | 2.0 | 5.0 | 0.00 | 0.00 | 0.00 | 56 | 1007.3 |
| 20260831065507 | 70 | 265 | 2.0 | 4.0 | 0.00 | 0.00 | 0.00 | 56 | 1007.3 |
| 20260831065005 | 70 | 293 | 2.0 | 4.0 | 0.00 | 0.00 | 0.00 | 56 | 1007.3 |
| 20260831064518 | 70 | 289 | 2.0 | 6.0 | 0.00 | 0.00 | 0.00 | 56 | 1007.4 |
| 20260831064005 | 70 | 309 | 2.0 | 6.0 | 0.00 | 0.00 | 0.00 | 56 | 1007.3 |
| 20260831063505 | 70 | 281 | 2.0 | 5.0 | 0.00 | 0.00 | 0.00 | 56 | 1007.3 |
| 20260831063014 | 70 | 264 | 2.0 | 4.0 | 0.00 | 0.00 | 0.00 | 55 | 1007.3 |
| 20260831062505 | 70 | 270 | 2.0 | 4.0 | 0.00 | 0.00 | 0.00 | 55 | 1007.4 |
| 20260831062005 | 70 | 285 | 1.0 | 3.0 | 0.00 | 0.00 | 0.00 | 54 | 1007.3 |
| 20260831061505 | 70 | 274 | 1.0 | 3.0 | 0.00 | 0.00 | 0.00 | 54 | 1007.3 |
| 20260831061005 | 70 | 291 | 1.0 | 3.0 | 0.00 | 0.00 | 0.00 | 53 | 1007.3 |
| 20260831060505 | 70 | 278 | 1.0 | 3.0 | 0.00 | 0.00 | 0.00 | 53 | 1007.2 |
| 20260831060004 | 70 | 271 | 2.0 | 3.0 | 0.00 | 0.00 | 0.00 | 52 | 1007.2 |
| 20260831055504 | 70 | 268 | 2.0 | 3.0 | 0.00 | 0.00 | 0.00 | 52 | 1007.2 |
| 20260831055004 | 70 | 281 | 1.0 | 2.0 | 0.00 | 0.00 | 0.00 | 52 | 1007.1 |
| 20260831054504 | 70 | 293 | 1.0 | 3.0 | 0.00 | 0.00 | 0.00 | 51 | 1007.2 |
| 20260831054003 | 71 | 275 | 2.0 | 6.0 | 0.00 | 0.00 | 0.00 | 50 | 1007.2 |
| 20260831053503 | 71 | 277 | 3.0 | 6.0 | 0.00 | 0.00 | 0.00 | 50 | 1007.2 |
| 20260831053010 | 71 | 258 | 2.0 | 4.0 | 0.00 | 0.00 | 0.00 | 50 | 1007.3 |
| 20260831052506 | 71 | 241 | 2.0 | 4.0 | 0.00 | 0.00 | 0.00 | 49 | 1007.3 |
| 20260831052004 | 72 | 255 | 1.0 | 5.0 | 0.00 | 0.00 | 0.00 | 49 | 1007.3 |
| 20260831051503 | 72 | 245 | 2.0 | 5.0 | 0.00 | 0.00 | 0.00 | 48 | 1007.3 |
| 20260831051003 | 73 | 226 | 2.0 | 4.0 | 0.00 | 0.00 | 0.00 | 48 | 1007.3 |
| 20260831050503 | 74 | 210 | 1.0 | 5.0 | 0.00 | 0.00 | 0.00 | 47 | 1007.3 |
| 20260831050009 | 75 | 231 | 3.0 | 5.0 | 0.00 | 0.00 | 0.00 | 46 | 1007.2 |
| 20260831045503 | 76 | 254 | 1.0 | 4.0 | 0.00 | 0.00 | 0.00 | 45 | 1007.1 |
| 20260831045002 | 77 | 231 | 2.0 | 4.0 | 0.00 | 0.00 | 0.00 | 44 | 1007.2 |
| 20260831044503 | 77 | 250 | 3.0 | 5.0 | 0.00 | 0.00 | 0.00 | 43 | 1007.2 |
| 20260831044003 | 78 | 270 | 3.0 | 5.0 | 0.00 | 0.00 | 0.00 | 43 | 1007.2 |
| 20260831043501 | 78 | 258 | 2.0 | 5.0 | 0.00 | 0.00 | 0.00 | 42 | 1007.1 |
| 20260831043003 | 78 | 282 | 2.0 | 5.0 | 0.00 | 0.00 | 0.00 | 42 | 1007.0 |
| 20260831042502 | 79 | 304 | 2.0 | 5.0 | 0.00 | 0.00 | 0.00 | 41 | 1007.0 |
| 20260831042002 | 79 | 336 | 2.0 | 5.0 | 0.00 | 0.00 | 0.00 | 41 | 1006.9 |
| 20260831041504 | 79 | 304 | 2.0 | 5.0 | 0.00 | 0.00 | 0.00 | 40 | 1006.8 |
| 20260831041003 | 79 | 283 | 3.0 | 7.0 | 0.00 | 0.00 | 0.00 | 40 | 1006.8 |
| 20260831040502 | 80 | 325 | 1.0 | 7.0 | 0.00 | 0.00 | 0.00 | 39 | 1006.7 |
| 20260831040004 | 80 | 270 | 3.0 | 6.0 | 0.00 | 0.00 | 0.00 | 39 | 1006.6 |
| 20260831035502 | 80 | 339 | 1.0 | 5.0 | 0.00 | 0.00 | 0.00 | 39 | 1006.6 |
| 20260831035002 | 80 | 320 | 2.0 | 5.0 | 0.00 | 0.00 | 0.00 | 38 | 1006.5 |
| 20260831034501 | 81 | 285 | 1.0 | 4.0 | 0.00 | 0.00 | 0.00 | 38 | 1006.5 |
| 20260831034101 | 81 | 318 | 2.0 | 4.0 | 0.00 | 0.00 | 0.00 | 37 | 1006.4 |
| 20260831033600 | 81 | 331 | 2.0 | 4.0 | 0.00 | 0.00 | 0.00 | 37 | 1006.4 |
| 20260831033102 | 82 | 316 | 1.0 | 4.0 | 0.00 | 0.00 | 0.00 | 36 | 1006.3 |
| 20260831032600 | 82 | 322 | 0.0 | 4.0 | 0.00 | 0.00 | 0.00 | 36 | 1006.2 |
| 20260831032103 | 82 | 335 | 2.0 | 4.0 | 0.00 | 0.00 | 0.00 | 35 | 1006.2 |
| 20260831031601 | 82 | 343 | 1.0 | 3.0 | 0.00 | 0.00 | 0.00 | 35 | 1006.2 |
| 20260831031059 | 83 | 328 | 1.0 | 3.0 | 0.00 | 0.00 | 0.00 | 35 | 1006.2 |
| 20260831030559 | 83 | 343 | 1.0 | 3.0 | 0.00 | 0.00 | 0.00 | 34 | 1006.2 |
| 20260831030104 | 83 | 322 | 1.0 | 3.0 | 0.00 | 0.00 | 0.00 | 33 | 1006.2 |
| 20260831025600 | 83 | 304 | 0.0 | 3.0 | 0.00 | 0.00 | 0.00 | 33 | 1006.1 |
| 20260831025102 | 84 | 328 | 2.0 | 4.0 | 0.00 | 0.00 | 0.00 | 32 | 1006.0 |
| 20260831024559 | 84 | 312 | 1.0 | 4.0 | 0.00 | 0.00 | 0.00 | 32 | 1006.0 |
| 20260831024100 | 85 | 331 | 1.0 | 3.0 | 0.00 | 0.00 | 0.00 | 31 | 1006.1 |
| 20260831023559 | 85 | 320 | 1.0 | 4.0 | 0.00 | 0.00 | 0.00 | 30 | 1006.0 |
| 20260831023058 | 86 | 340 | 1.0 | 4.0 | 0.00 | 0.00 | 0.00 | 30 | 1006.0 |
| 20260831022601 | 86 | 333 | 1.0 | 6.0 | 0.00 | 0.00 | 0.00 | 29 | 1006.0 |
| 20260831022059 | 87 | 337 | 1.0 | 6.0 | 0.00 | 0.00 | 0.00 | 28 | 1006.0 |
| 20260831021600 | 87 | 336 | 0.0 | 2.0 | 0.00 | 0.00 | 0.00 | 27 | 1006.0 |
| 20260831021058 | 88 | 10 | 0.0 | 4.0 | 0.00 | 0.00 | 0.00 | 26 | 1006.0 |
| 20260831020558 | 88 | 341 | 1.0 | 4.0 | 0.00 | 0.00 | 0.00 | 25 | 1006.0 |
| 20260831020058 | 88 | 318 | 1.0 | 5.0 | 0.00 | 0.00 | 0.00 | 25 | 1006.0 |
| 20260831015557 | 89 | 326 | 2.0 | 8.0 | 0.00 | 0.00 | 0.00 | 25 | 1006.0 |
| 20260831015057 | 89 | 332 | 2.0 | 8.0 | 0.00 | 0.00 | 0.00 | 25 | 1006.0 |
| 20260831014557 | 89 | 337 | 2.0 | 6.0 | 0.00 | 0.00 | 0.00 | 25 | 1006.1 |
| 20260831014057 | 89 | 293 | 1.0 | 8.0 | 0.00 | 0.00 | 0.00 | 25 | 1006.0 |
| 20260831013556 | 89 | 337 | 3.0 | 6.0 | 0.00 | 0.00 | 0.00 | 24 | 1006.1 |
| 20260831013056 | 90 | 325 | 2.0 | 6.0 | 0.00 | 0.00 | 0.00 | 25 | 1006.1 |
| 20260831012559 | 90 | 330 | 2.0 | 6.0 | 0.00 | 0.00 | 0.00 | 24 | 1006.1 |
| 20260831012055 | 90 | 310 | 3.0 | 6.0 | 0.00 | 0.00 | 0.00 | 24 | 1006.2 |
| 20260831011554 | 91 | 337 | 1.0 | 7.0 | 0.00 | 0.00 | 0.00 | 24 | 1006.2 |
| 20260831011055 | 90 | 286 | 2.0 | 7.0 | 0.00 | 0.00 | 0.00 | 24 | 1006.2 |
| 20260831010555 | 90 | 354 | 3.0 | 10.0 | 0.00 | 0.00 | 0.00 | 24 | 1006.2 |
| 20260831010100 | 90 | 339 | 2.0 | 10.0 | 0.00 | 0.00 | 0.00 | 23 | 1006.1 |
| 20260831005554 | 90 | 304 | 3.0 | 9.0 | 0.00 | 0.00 | 0.00 | 23 | 1006.2 |
| 20260831005054 | 90 | 318 | 3.0 | 8.0 | 0.00 | 0.00 | 0.00 | 23 | 1006.2 |
| 20260831004554 | 91 | 338 | 4.0 | 9.0 | 0.00 | 0.00 | 0.00 | 23 | 1006.2 |
| 20260831004054 | 91 | 303 | 4.0 | 9.0 | 0.00 | 0.00 | 0.00 | 22 | 1006.3 |
| 20260831003554 | 91 | 307 | 2.0 | 8.0 | 0.00 | 0.00 | 0.00 | 24 | 1006.2 |
| 20260831003053 | 91 | 315 | 2.0 | 10.0 | 0.00 | 0.00 | 0.00 | 23 | 1006.2 |
| 20260831002552 | 91 | 320 | 4.0 | 10.0 | 0.00 | 0.00 | 0.00 | 22 | 1006.3 |
| 20260831002052 | 90 | 310 | 2.0 | 8.0 | 0.00 | 0.00 | 0.00 | 22 | 1006.3 |
| 20260831001552 | 91 | 333 | 4.0 | 8.0 | 0.00 | 0.00 | 0.00 | 21 | 1006.3 |
| 20260831001052 | 91 | 337 | 4.0 | 8.0 | 0.00 | 0.00 | 0.00 | 22 | 1006.4 |
| 20260831000552 | 91 | 343 | 3.0 | 9.0 | 0.00 | 0.00 | 0.00 | 22 | 1006.3 |
| 20260831000059 | 91 | 340 | 5.0 | 9.0 | 0.00 | 0.00 | 0.00 | 22 | 1006.4 |
| 20260830235551 | 91 | 324 | 3.0 | 7.0 | 0.00 | 0.00 | 0.00 | 22 | 1006.4 |
| 20260830235050 | 91 | 291 | 3.0 | 8.0 | 0.00 | 0.00 | 0.00 | 22 | 1006.4 |
| 20260830234557 | 92 | 246 | 3.0 | 8.0 | 0.00 | 0.00 | 0.00 | 22 | 1006.4 |
| 20260830234050 | 92 | 233 | 3.0 | 7.0 | 0.00 | 0.00 | 0.00 | 23 | 1006.4 |
| 20260830233549 | 91 | 324 | 3.0 | 9.0 | 0.00 | 0.00 | 0.00 | 22 | 1006.5 |
| 20260830233058 | 91 | 305 | 2.0 | 9.0 | 0.00 | 0.00 | 0.00 | 22 | 1006.5 |
| 20260830232548 | 92 | 344 | 3.0 | 8.0 | 0.00 | 0.00 | 0.00 | 23 | 1006.6 |
| 20260830232047 | 91 | 299 | 2.0 | 8.0 | 0.00 | 0.00 | 0.00 | 24 | 1006.7 |
| 20260830231546 | 91 | 321 | 4.0 | 8.0 | 0.00 | 0.00 | 0.00 | 23 | 1006.7 |
| 20260830231045 | 91 | 330 | 3.0 | 8.0 | 0.00 | 0.00 | 0.00 | 21 | 1006.8 |
| 20260830230544 | 91 | 322 | 3.0 | 9.0 | 0.00 | 0.00 | 0.00 | 22 | 1006.8 |
| 20260830230044 | 90 | 268 | 4.0 | 9.0 | 0.00 | 0.00 | 0.00 | 22 | 1006.8 |
| 20260830225546 | 91 | 27 | 2.0 | 8.0 | 0.00 | 0.00 | 0.00 | 23 | 1006.9 |
| 20260830225043 | 90 | 27 | 4.0 | 8.0 | 0.00 | 0.00 | 0.00 | 23 | 1006.9 |
| 20260830224545 | 90 | 282 | 4.0 | 8.0 | 0.00 | 0.00 | 0.00 | 24 | 1007.0 |
| 20260830224043 | 90 | 316 | 3.0 | 8.0 | 0.00 | 0.00 | 0.00 | 23 | 1007.1 |
| 20260830223541 | 91 | 272 | 3.0 | 8.0 | 0.00 | 0.00 | 0.00 | 23 | 1007.1 |
| 20260830223042 | 90 | 328 | 3.0 | 8.0 | 0.00 | 0.00 | 0.00 | 23 | 1007.1 |
| 20260830222540 | 91 | 312 | 3.0 | 6.0 | 0.00 | 0.00 | 0.00 | 24 | 1007.2 |
| 20260830222039 | 90 | 8 | 1.0 | 8.0 | 0.00 | 0.00 | 0.00 | 25 | 1007.3 |
| 20260830221539 | 90 | 37 | 3.0 | 7.0 | 0.00 | 0.00 | 0.00 | 24 | 1007.3 |
| 20260830221038 | 90 | 290 | 2.0 | 7.0 | 0.00 | 0.00 | 0.00 | 22 | 1007.4 |
| 20260830220540 | 90 | 332 | 3.0 | 8.0 | 0.00 | 0.00 | 0.00 | 24 | 1007.5 |
| 20260830220055 | 89 | 280 | 4.0 | 10.0 | 0.00 | 0.00 | 0.00 | 24 | 1007.6 |
| 20260830215535 | 89 | 308 | 5.0 | 9.0 | 0.00 | 0.00 | 0.00 | 23 | 1007.6 |
| 20260830215035 | 89 | 329 | 2.0 | 7.0 | 0.00 | 0.00 | 0.00 | 26 | 1007.7 |
| 20260830214535 | 89 | 307 | 2.0 | 8.0 | 0.00 | 0.00 | 0.00 | 26 | 1007.7 |
| 20260830214032 | 88 | 68 | 3.0 | 9.0 | 0.00 | 0.00 | 0.00 | 28 | 1007.7 |
| 20260830213531 | 88 | 306 | 3.0 | 9.0 | 0.00 | 0.00 | 0.00 | 27 | 1007.9 |
| 20260830213031 | 88 | 337 | 3.0 | 8.0 | 0.00 | 0.00 | 0.00 | 27 | 1007.9 |
| 20260830212529 | 88 | 341 | 4.0 | 9.0 | 0.00 | 0.00 | 0.00 | 27 | 1008.1 |
| 20260830212028 | 87 | 264 | 4.0 | 9.0 | 0.00 | 0.00 | 0.00 | 28 | 1008.1 |
| 20260830211530 | 87 | 328 | 3.0 | 9.0 | 0.00 | 0.00 | 0.00 | 28 | 1008.2 |
| 20260830211027 | 88 | 317 | 2.0 | 5.0 | 0.00 | 0.00 | 0.00 | 28 | 1008.3 |
| 20260830210526 | 87 | 237 | 2.0 | 9.0 | 0.00 | 0.00 | 0.00 | 28 | 1008.4 |
| 20260830210026 | 87 | 326 | 4.0 | 9.0 | 0.00 | 0.00 | 0.00 | 29 | 1008.4 |
| 20260830205524 | 86 | 304 | 2.0 | 7.0 | 0.00 | 0.00 | 0.00 | 29 | 1008.4 |
| 20260830205024 | 86 | 318 | 4.0 | 7.0 | 0.00 | 0.00 | 0.00 | 29 | 1008.5 |
| 20260830204522 | 86 | 279 | 3.0 | 9.0 | 0.00 | 0.00 | 0.00 | 29 | 1008.6 |
| 20260830204021 | 86 | 293 | 4.0 | 9.0 | 0.00 | 0.00 | 0.00 | 30 | 1008.7 |
| 20260830203519 | 86 | 272 | 4.0 | 8.0 | 0.00 | 0.00 | 0.00 | 30 | 1008.6 |
| 20260830203018 | 86 | 300 | 4.0 | 10.0 | 0.00 | 0.00 | 0.00 | 29 | 1008.7 |
| 20260830202517 | 86 | 266 | 5.0 | 10.0 | 0.00 | 0.00 | 0.00 | 30 | 1008.7 |
| 20260830202017 | 85 | 281 | 3.0 | 8.0 | 0.00 | 0.00 | 0.00 | 32 | 1008.7 |
| 20260830201516 | 84 | 314 | 4.0 | 8.0 | 0.00 | 0.00 | 0.00 | 33 | 1008.7 |
| 20260830201017 | 84 | 341 | 3.0 | 8.0 | 0.00 | 0.00 | 0.00 | 33 | 1008.7 |
| 20260830200512 | 83 | 4 | 2.0 | 6.0 | 0.00 | 0.00 | 0.00 | 34 | 1008.8 |
| 20260830200011 | 83 | 328 | 3.0 | 8.0 | 0.00 | 0.00 | 0.00 | 34 | 1008.9 |
| 20260830195510 | 83 | 323 | 3.0 | 9.0 | 0.00 | 0.00 | 0.00 | 33 | 1008.9 |
| 20260830195009 | 82 | 339 | 5.0 | 9.0 | 0.00 | 0.00 | 0.00 | 34 | 1009.0 |
| 20260830194511 | 82 | 349 | 3.0 | 9.0 | 0.00 | 0.00 | 0.00 | 34 | 1009.1 |
| 20260830194008 | 82 | 337 | 4.0 | 8.0 | 0.00 | 0.00 | 0.00 | 36 | 1009.1 |
| 20260830193505 | 81 | 255 | 3.0 | 8.0 | 0.00 | 0.00 | 0.00 | 36 | 1009.2 |
| 20260830193005 | 81 | 354 | 3.0 | 9.0 | 0.00 | 0.00 | 0.00 | 36 | 1009.2 |
| 20260830192503 | 81 | 328 | 3.0 | 9.0 | 0.00 | 0.00 | 0.00 | 36 | 1009.3 |
| 20260830192003 | 80 | 343 | 3.0 | 9.0 | 0.00 | 0.00 | 0.00 | 37 | 1009.4 |
| 20260830191507 | 80 | 301 | 4.0 | 8.0 | 0.00 | 0.00 | 0.00 | 37 | 1009.4 |
| 20260830191001 | 80 | 305 | 3.0 | 8.0 | 0.00 | 0.00 | 0.00 | 38 | 1009.5 |
| 20260830190601 | 80 | 290 | 4.0 | 9.0 | 0.00 | 0.00 | 0.00 | 38 | 1009.6 |
| 20260830190110 | 80 | 346 | 4.0 | 9.0 | 0.00 | 0.00 | 0.00 | 38 | 1009.6 |
| 20260830185601 | 80 | 330 | 3.0 | 7.0 | 0.00 | 0.00 | 0.00 | 39 | 1009.7 |
| 20260830185058 | 79 | 303 | 4.0 | 9.0 | 0.00 | 0.00 | 0.00 | 38 | 1009.7 |
| 20260830184557 | 79 | 264 | 3.0 | 9.0 | 0.00 | 0.00 | 0.00 | 40 | 1009.8 |
| 20260830184054 | 78 | 303 | 4.0 | 9.0 | 0.00 | 0.00 | 0.00 | 40 | 1009.9 |
| 20260830183553 | 78 | 253 | 2.0 | 9.0 | 0.00 | 0.00 | 0.00 | 40 | 1009.9 |
| 20260830183052 | 77 | 336 | 4.0 | 9.0 | 0.00 | 0.00 | 0.00 | 41 | 1009.9 |
| 20260830182551 | 77 | 330 | 4.0 | 11.0 | 0.00 | 0.00 | 0.00 | 41 | 1009.9 |
| 20260830182051 | 77 | 330 | 4.0 | 11.0 | 0.00 | 0.00 | 0.00 | 41 | 1009.9 |
| 20260830181550 | 77 | 332 | 4.0 | 9.0 | 0.00 | 0.00 | 0.00 | 42 | 1009.8 |
| 20260830181049 | 76 | 268 | 4.0 | 8.0 | 0.00 | 0.00 | 0.00 | 42 | 1009.9 |
| 20260830180552 | 76 | 291 | 3.0 | 8.0 | 0.00 | 0.00 | 0.00 | 43 | 1009.9 |
| 20260830180048 | 76 | 23 | 3.0 | 8.0 | 0.00 | 0.00 | 0.00 | 43 | 1009.9 |
| 20260830175550 | 76 | 242 | 4.0 | 10.0 | 0.00 | 0.00 | 0.00 | 44 | 1009.8 |
| 20260830175046 | 76 | 342 | 5.0 | 10.0 | 0.00 | 0.00 | 0.00 | 44 | 1009.9 |
| 20260830174553 | 76 | 246 | 4.0 | 9.0 | 0.00 | 0.00 | 0.00 | 45 | 1009.8 |
| 20260830174045 | 75 | 287 | 4.0 | 10.0 | 0.00 | 0.00 | 0.00 | 45 | 1009.8 |
| 20260830173545 | 75 | 328 | 4.0 | 10.0 | 0.00 | 0.00 | 0.00 | 46 | 1009.8 |
| 20260830173048 | 74 | 323 | 3.0 | 8.0 | 0.00 | 0.00 | 0.00 | 46 | 1009.8 |
| 20260830172545 | 74 | 307 | 2.0 | 9.0 | 0.00 | 0.00 | 0.00 | 47 | 1009.8 |
| 20260830172040 | 73 | 278 | 2.0 | 9.0 | 0.00 | 0.00 | 0.00 | 48 | 1009.7 |
| 20260830171539 | 73 | 310 | 3.0 | 9.0 | 0.00 | 0.00 | 0.00 | 49 | 1009.7 |
| 20260830171037 | 73 | 330 | 3.0 | 9.0 | 0.00 | 0.00 | 0.00 | 50 | 1009.7 |
| 20260830170535 | 72 | 283 | 4.0 | 9.0 | 0.00 | 0.00 | 0.00 | 50 | 1009.7 |
| 20260830170036 | 72 | 349 | 4.0 | 8.0 | 0.00 | 0.00 | 0.00 | 50 | 1009.8 |
| 20260830165535 | 71 | 304 | 2.0 | 9.0 | 0.00 | 0.00 | 0.00 | 51 | 1009.7 |
| 20260830165034 | 71 | 264 | 4.0 | 9.0 | 0.00 | 0.00 | 0.00 | 51 | 1009.8 |
| 20260830164534 | 71 | 320 | 3.0 | 8.0 | 0.00 | 0.00 | 0.00 | 52 | 1009.8 |
| 20260830164034 | 70 | 269 | 3.0 | 6.0 | 0.00 | 0.00 | 0.00 | 52 | 1009.8 |
| 20260830163533 | 70 | 354 | 3.0 | 6.0 | 0.00 | 0.00 | 0.00 | 52 | 1009.8 |
| 20260830163039 | 70 | 235 | 3.0 | 8.0 | 0.00 | 0.00 | 0.00 | 53 | 1009.8 |
| 20260830162533 | 69 | 291 | 3.0 | 9.0 | 0.00 | 0.00 | 0.00 | 53 | 1009.7 |
| 20260830162031 | 69 | 276 | 4.0 | 8.0 | 0.00 | 0.00 | 0.00 | 53 | 1009.8 |
| 20260830161531 | 69 | 21 | 3.0 | 9.0 | 0.00 | 0.00 | 0.00 | 54 | 1009.7 |
| 20260830161032 | 68 | 251 | 2.0 | 8.0 | 0.00 | 0.00 | 0.00 | 55 | 1009.7 |
| 20260830160529 | 68 | 303 | 3.0 | 7.0 | 0.00 | 0.00 | 0.00 | 56 | 1009.7 |
| 20260830160036 | 68 | 261 | 2.0 | 7.0 | 0.00 | 0.00 | 0.00 | 57 | 1009.8 |
| 20260830155526 | 67 | 268 | 1.0 | 10.0 | 0.00 | 0.00 | 0.00 | 59 | 1009.6 |
| 20260830155025 | 66 | 343 | 2.0 | 10.0 | 0.00 | 0.00 | 0.00 | 59 | 1009.7 |
| 20260830154525 | 66 | 336 | 5.0 | 10.0 | 0.00 | 0.00 | 0.00 | 59 | 1009.6 |
| 20260830154022 | 65 | 354 | 3.0 | 8.0 | 0.00 | 0.00 | 0.00 | 59 | 1009.7 |
| 20260830153521 | 65 | 337 | 3.0 | 10.0 | 0.00 | 0.00 | 0.00 | 60 | 1009.6 |
| 20260830153020 | 65 | 305 | 4.0 | 10.0 | 0.00 | 0.00 | 0.00 | 60 | 1009.6 |
| 20260830152523 | 64 | 321 | 5.0 | 9.0 | 0.00 | 0.00 | 0.00 | 60 | 1009.6 |
| 20260830152020 | 64 | 324 | 4.0 | 9.0 | 0.00 | 0.00 | 0.00 | 60 | 1009.7 |
| 20260830151519 | 64 | 324 | 3.0 | 8.0 | 0.00 | 0.00 | 0.00 | 61 | 1009.7 |
| 20260830151022 | 64 | 249 | 3.0 | 8.0 | 0.00 | 0.00 | 0.00 | 61 | 1009.7 |
| 20260830150518 | 63 | 314 | 3.0 | 8.0 | 0.00 | 0.00 | 0.00 | 61 | 1009.7 |
| 20260830150021 | 63 | 8 | 3.0 | 8.0 | 0.00 | 0.00 | 0.00 | 62 | 1009.6 |
| 20260830145519 | 63 | 344 | 3.0 | 8.0 | 0.00 | 0.00 | 0.00 | 62 | 1009.6 |
| 20260830145014 | 63 | 287 | 3.0 | 8.0 | 0.00 | 0.00 | 0.00 | 62 | 1009.6 |
| 20260830144521 | 62 | 332 | 3.0 | 6.0 | 0.00 | 0.00 | 0.00 | 63 | 1009.6 |
| 20260830144011 | 62 | 337 | 3.0 | 8.0 | 0.00 | 0.00 | 0.00 | 64 | 1009.6 |
| 20260830143509 | 62 | 299 | 3.0 | 8.0 | 0.00 | 0.00 | 0.00 | 64 | 1009.6 |
| 20260830143008 | 62 | 279 | 2.0 | 8.0 | 0.00 | 0.00 | 0.00 | 65 | 1009.6 |
| 20260830142508 | 61 | 300 | 2.0 | 8.0 | 0.00 | 0.00 | 0.00 | 65 | 1009.5 |
| 20260830142006 | 61 | 271 | 2.0 | 8.0 | 0.00 | 0.00 | 0.00 | 66 | 1009.4 |
| 20260830141504 | 61 | 261 | 3.0 | 7.0 | 0.00 | 0.00 | 0.00 | 66 | 1009.3 |
| 20260830141002 | 60 | 287 | 2.0 | 6.0 | 0.00 | 0.00 | 0.00 | 67 | 1009.3 |
| 20260830140502 | 60 | 297 | 1.0 | 4.0 | 0.00 | 0.00 | 0.00 | 67 | 1009.4 |
| 20260830140001 | 60 | 287 | 1.0 | 4.0 | 0.00 | 0.00 | 0.00 | 68 | 1009.3 |
| 20260830135600 | 60 | 287 | 0.0 | 5.0 | 0.00 | 0.00 | 0.00 | 68 | 1009.1 |
| 20260830135100 | 60 | 12 | 2.0 | 5.0 | 0.00 | 0.00 | 0.00 | 68 | 1009.1 |
| 20260830134559 | 60 | 284 | 2.0 | 3.0 | 0.00 | 0.00 | 0.00 | 68 | 1009.0 |
| 20260830134058 | 60 | 345 | 1.0 | 4.0 | 0.00 | 0.00 | 0.00 | 68 | 1009.0 |
| 20260830133557 | 60 | 332 | 1.0 | 5.0 | 0.00 | 0.00 | 0.00 | 68 | 1009.0 |
| 20260830133104 | 60 | 314 | 1.0 | 6.0 | 0.00 | 0.00 | 0.00 | 68 | 1008.9 |
| 20260830132555 | 60 | 332 | 1.0 | 6.0 | 0.00 | 0.00 | 0.00 | 67 | 1008.9 |
| 20260830132055 | 60 | 336 | 2.0 | 4.0 | 0.00 | 0.00 | 0.00 | 67 | 1008.9 |
| 20260830131557 | 60 | 313 | 2.0 | 5.0 | 0.00 | 0.00 | 0.00 | 67 | 1008.8 |
| 20260830131054 | 60 | 318 | 2.0 | 5.0 | 0.00 | 0.00 | 0.00 | 67 | 1008.7 |
| 20260830130554 | 60 | 334 | 2.0 | 5.0 | 0.00 | 0.00 | 0.00 | 66 | 1008.7 |
| 20260830130105 | 60 | 305 | 2.0 | 5.0 | 0.00 | 0.00 | 0.00 | 66 | 1008.6 |
| 20260830125551 | 61 | 295 | 3.0 | 5.0 | 0.00 | 0.00 | 0.00 | 66 | 1008.6 |
| 20260830125051 | 61 | 322 | 3.0 | 6.0 | 0.00 | 0.00 | 0.00 | 65 | 1008.6 |
| 20260830124550 | 61 | 324 | 2.0 | 6.0 | 0.00 | 0.00 | 0.00 | 65 | 1008.6 |
| 20260830124053 | 61 | 339 | 2.0 | 6.0 | 0.00 | 0.00 | 0.00 | 65 | 1008.7 |
| 20260830123548 | 61 | 284 | 3.0 | 7.0 | 0.00 | 0.00 | 0.00 | 64 | 1008.6 |
| 20260830123052 | 61 | 308 | 4.0 | 6.0 | 0.00 | 0.00 | 0.00 | 64 | 1008.7 |
| 20260830122547 | 62 | 330 | 3.0 | 8.0 | 0.00 | 0.00 | 0.00 | 63 | 1008.6 |
| 20260830122047 | 62 | 283 | 4.0 | 8.0 | 0.00 | 0.00 | 0.00 | 63 | 1008.5 |
| 20260830121545 | 62 | 310 | 3.0 | 8.0 | 0.00 | 0.00 | 0.00 | 62 | 1008.6 |
| 20260830121043 | 62 | 318 | 3.0 | 8.0 | 0.00 | 0.00 | 0.00 | 62 | 1008.5 |
| 20260830120543 | 62 | 334 | 2.0 | 10.0 | 0.00 | 0.00 | 0.00 | 61 | 1008.4 |
| 20260830120100 | 63 | 308 | 3.0 | 10.0 | 0.00 | 0.00 | 0.00 | 61 | 1008.5 |
| 20260830115542 | 63 | 268 | 3.0 | 8.0 | 0.00 | 0.00 | 0.00 | 60 | 1008.4 |
| 20260830115040 | 63 | 295 | 2.0 | 6.0 | 0.00 | 0.00 | 0.00 | 60 | 1008.5 |
| 20260830114541 | 63 | 316 | 2.0 | 5.0 | 0.00 | 0.00 | 0.00 | 60 | 1008.4 |
| 20260830114039 | 63 | 306 | 3.0 | 6.0 | 0.00 | 0.00 | 0.00 | 59 | 1008.4 |
| 20260830113542 | 63 | 318 | 1.0 | 4.0 | 0.00 | 0.00 | 0.00 | 59 | 1008.5 |
| 20260830113038 | 63 | 333 | 2.0 | 4.0 | 0.00 | 0.00 | 0.00 | 59 | 1008.5 |
| 20260830112537 | 64 | 308 | 2.0 | 4.0 | 0.00 | 0.00 | 0.00 | 58 | 1008.5 |
| 20260830112037 | 64 | 274 | 2.0 | 4.0 | 0.00 | 0.00 | 0.00 | 58 | 1008.5 |
| 20260830111540 | 64 | 262 | 2.0 | 4.0 | 0.00 | 0.00 | 0.00 | 57 | 1008.4 |
| 20260830111036 | 64 | 308 | 2.0 | 5.0 | 0.00 | 0.00 | 0.00 | 57 | 1008.5 |
| 20260830110537 | 64 | 281 | 2.0 | 5.0 | 0.00 | 0.00 | 0.00 | 57 | 1008.5 |